This demonstration page uses our WeatherBlox Daily Observations layout. Learn more.

Left ArrowRight Arrow

39.51506, -84.39828

Hourly Observations for March 28, 2016

Temp ( °F °C ) Dew Point ( °F °C ) Humidity (%) Winds ( mph kmh ) Pressure ( in mb ) Visibility ( mi km ) Precip ( " mm )
12:15 am 00:15 Cloudy with Rain 55 12.5 49 9.2 80 80 NW 16 26 29.83 1010 7 11 0.00 0.00
12:35 am 00:35 Cloudy with Light Rain 55 12.5 49 9.2 80 80 NW 9 15 29.83 1010 10 16 0.00 0.00
12:55 am 00:55 Cloudy with Light Rain 55 12.5 48 9 79 79 WNW 3 6 29.83 1010 10 16 0.00 0.00
1:15 am 01:15 Cloudy with Light Rain 55 12.5 49 9.5 82 82 N 5 7 29.80 1009 10 16 0.00 0.00
1:35 am 01:35 Mostly Cloudy 52 11 47 8.2 83 83 WNW 3 6 29.80 1009 10 16 0.00 0.00
1:55 am 01:55 Mostly Cloudy 52 11 47 8.5 85 85 WSW 7 11 29.83 1010 10 16 0.00 0.00
2:15 am 02:15 Cloudy 54 12.4 49 9.6 83 83 W 12 19 29.85 1011 10 16 0.00 0.00
2:35 am 02:35 Cloudy with Drizzle 52 11 47 8.3 84 84 W 14 22 29.85 1011 10 16 0.00 0.00
2:55 am 02:55 Cloudy with Drizzle 49 9.6 45 7 84 84 WNW 18 30 29.85 1011 4 6 0.00 0.00
3:15 am 03:15 Cloudy 49 9.6 45 7 84 84 WNW 14 22 29.85 1011 10 16 0.00 0.00
3:35 am 03:35 Cloudy 49 9.6 44 6.7 82 82 WNW 17 28 29.85 1011 10 16 0.00 0.00
3:55 am 03:55 Cloudy 49 9.6 43 6.1 79 79 WNW 14 22 29.88 1012 10 16 0.00 0.00
4:15 am 04:15 Cloudy 49 9.6 43 6.2 80 80 W 16 26 29.88 1012 10 16 0.00 0.00
4:35 am 04:35 Cloudy 49 9.4 42 5.6 77 77 WNW 13 20 29.88 1012 10 16 0.00 0.00
4:55 am 04:55 Cloudy 47 8.2 40 4.5 78 78 W 14 22 29.91 1013 10 16 0.00 0.00
5:35 am 05:35 Cloudy 47 8.2 39 4 75 75 W 15 24 29.91 1013 10 16 0.00 0.00
5:55 am 05:55 Cloudy 47 8.2 39 4.1 76 76 W 13 20 29.94 1014 10 16 0.00 0.00
6:15 am 06:15 Cloudy 47 8.2 40 4.2 76 76 W 9 15 29.94 1014 10 16 0.00 0.00
6:35 am 06:35 Cloudy 47 8.2 40 4.2 76 76 W 9 15 29.94 1014 10 16 0.00 0.00
6:55 am 06:55 Cloudy 47 8.2 40 4.3 77 77 W 8 13 29.94 1014 10 16 0.00 0.00
7:15 am 07:15 Cloudy 47 8.2 40 4.2 76 76 W 12 19 29.94 1014 10 16 0.00 0.00
7:35 am 07:35 Cloudy 49 9.6 42 5.4 75 75 W 10 17 29.97 1015 10 16 0.00 0.00
7:55 am 07:55 Cloudy 49 9.6 41 4.9 73 73 W 10 17 29.97 1015 10 16 0.00 0.00
8:15 am 08:15 Cloudy 49 9.6 40 4.6 71 71 W 12 19 30.00 1016 10 16 0.00 0.00
8:35 am 08:35 Cloudy 49 9.6 41 5 73 73 W 9 15 30.00 1016 10 16 0.00 0.00
8:55 am 08:55 Cloudy 49 9.6 41 5 73 73 W 12 19 30.00 1016 10 16 0.00 0.00
9:15 am 09:15 Cloudy 49 9.6 41 4.8 72 72 W 10 17 30.00 1016 10 16 0.00 0.00
9:35 am 09:35 Cloudy 49 9.6 41 4.9 73 73 W 10 17 30.03 1017 10 16 0.00 0.00
9:55 am 09:55 Cloudy 49 9.6 41 4.8 72 72 W 6 9 30.03 1017 10 16 0.00 0.00
10:15 am 10:15 Cloudy 49 9.6 40 4.7 72 72 W 9 15 30.03 1017 10 16 0.00 0.00
10:35 am 10:35 Cloudy 49 9.6 40 4.5 71 71 W 9 15 30.03 1017 10 16 0.00 0.00
10:55 am 10:55 Cloudy 49 9.6 40 4.3 70 70 W 14 22 30.03 1017 10 16 0.00 0.00
11:15 am 11:15 Cloudy 49 9.6 39 3.9 68 68 W 13 20 30.03 1017 10 16 0.00 0.00
11:35 am 11:35 Cloudy 49 9.6 38 3.3 65 65 W 13 20 30.06 1018 10 16 0.00 0.00
11:55 am 11:55 Cloudy 49 9.6 37 2.6 62 62 W 12 19 30.06 1018 10 16 0.00 0.00
12:15 pm 12:15 Cloudy 49 9.6 36 2.1 60 60 W 15 24 30.06 1018 10 16 0.00 0.00
12:35 pm 12:35 Cloudy 49 9.6 37 2.5 62 62 W 13 20 30.06 1018 10 16 0.00 0.00
12:55 pm 12:55 Cloudy 49 9.6 37 2.6 62 62 W 13 20 30.09 1019 10 16 0.00 0.00
1:15 pm 13:15 Cloudy 49 9.6 36 2.1 60 60 WNW 10 17 30.09 1019 10 16 0.00 0.00
1:35 pm 13:35 Cloudy 52 11 36 2.4 56 56 W 13 20 30.09 1019 10 16 0.00 0.00
1:55 pm 13:55 Cloudy 52 11.2 37 2.8 57 57 W 14 22 30.09 1019 10 16 0.00 0.00
2:15 pm 14:15 Cloudy 52 11 37 2.6 56 56 W 14 22 30.09 1019 10 16 0.00 0.00
2:35 pm 14:35 Cloudy 53 11.5 38 3.2 57 57 W 14 22 30.09 1019 10 16 0.00 0.00
2:55 pm 14:55 Cloudy 52 11 37 2.7 57 57 W 17 28 30.09 1019 10 16 0.00 0.00
3:15 pm 15:15 Cloudy 53 11.4 37 2.9 56 56 WNW 15 24 30.09 1019 10 16 0.00 0.00
3:35 pm 15:35 Cloudy 52 11 36 2.2 55 55 WNW 17 28 30.09 1019 10 16 0.00 0.00
4:00 pm 16:00 Cloudy 55 12.5 38 3.1 53 53 W 14 22 30.09 1019 10 16 0.00 0.00
4:15 pm 16:15 Cloudy 52 11 36 2.1 55 55 WNW 13 20 30.09 1019 10 16 0.00 0.00
4:35 pm 16:35 Cloudy 52 11 37 2.5 56 56 W 12 19 30.09 1019 10 16 0.00 0.00
4:55 pm 16:55 Cloudy 51 10.3 36 2.3 58 58 NW 13 20 30.12 1020 10 16 0.00 0.00
5:15 pm 17:15 Cloudy 50 9.9 37 2.8 62 62 NW 10 17 30.12 1020 10 16 0.00 0.00
5:35 pm 17:35 Cloudy 49 9.6 38 3.1 64 64 NW 9 15 30.12 1020 10 16 0.00 0.00
5:55 pm 17:55 Cloudy 49 9.7 37 2.8 62 62 NW 10 17 30.12 1020 10 16 0.00 0.00
6:15 pm 18:15 Cloudy 51 10.3 37 3 61 61 WNW 14 22 30.12 1020 10 16 0.00 0.00
6:35 pm 18:35 Cloudy 51 10.3 37 3 61 61 NW 10 17 30.12 1020 10 16 0.00 0.00
6:55 pm 18:55 Cloudy 50 10 37 2.5 60 60 WNW 9 15 30.15 1021 10 16 0.00 0.00
7:15 pm 19:15 Cloudy 49 9.6 36 2.1 60 60 WNW 7 11 30.15 1021 10 16 0.00 0.00
7:35 pm 19:35 Cloudy 49 9.6 35 1.9 59 59 WNW 8 13 30.15 1021 10 16 0.00 0.00
7:55 pm 19:55 Cloudy 49 9.6 36 2 59 59 WNW 9 15 30.15 1021 10 16 0.00 0.00
8:15 pm 20:15 Cloudy 49 9.6 36 2 59 59 NW 7 11 30.15 1021 10 16 0.00 0.00
8:35 pm 20:35 Cloudy 49 9.6 36 2 59 59 WNW 7 11 30.15 1021 10 16 0.00 0.00
8:55 pm 20:55 Cloudy 49 9.6 36 2.4 61 61 NW 3 6 30.15 1021 10 16 0.00 0.00
9:15 pm 21:15 Cloudy 49 9.6 37 2.5 62 62 WNW 3 6 30.18 1022 10 16 0.00 0.00
9:35 pm 21:35 Cloudy 49 9.6 37 2.7 62 62 NW 5 7 30.18 1022 10 16 0.00 0.00
9:55 pm 21:55 Cloudy 49 9.6 37 3 64 64 NW 5 7 30.18 1022 10 16 0.00 0.00
10:15 pm 22:15 Cloudy 49 9.6 37 2.7 62 62 Calm 30.18 1022 10 16 0.00 0.00
10:35 pm 22:35 Cloudy 49 9.6 37 3 64 64 NNW 3 6 30.18 1022 10 16 0.00 0.00
10:55 pm 22:55 Cloudy 49 9.6 37 3 64 64 N 5 7 30.18 1022 10 16 0.00 0.00
11:15 pm 23:15 Cloudy 49 9.6 38 3.1 64 64 N 9 15 30.18 1022 10 16 0.00 0.00
11:35 pm 23:35 Cloudy 49 9.6 38 3.5 66 66 N 7 11 30.18 1022 10 16 0.00 0.00
11:55 pm 23:55 Cloudy 49 9.6 38 3.5 66 66 N 6 9 30.21 1023 10 16 0.00 0.00

Powered by AerisWeather